Weather History for HESH - October, 2013

Change the Weather History Date:

Tuesday, October 1, 2013

  Actual Average Record
Temperature  
Mean Temperature 86 °F -  
Max Temperature 96 °F - - ()
Min Temperature 75 °F - - ()
Cooling Degree Days 20    
Growing Degree Days 36 (Base 50)    
Moisture  
Dew Point 61 °F    
Average Humidity 49    
Maximum Humidity 65    
Minimum Humidity 25    
Precipitation  
Precipitation 0.00 in - - ()
Sea Level Pressure  
Sea Level Pressure 29.74 in    
Wind  
Wind Speed 5 mph ()    
Max Wind Speed 12 mph    
Max Gust Speed -    
T = Trace of Precipitation, MM = Missing Value Source: Averaged Metar Reports

Daily Weather History Graph

Daily Weather History Graph

Search for Another Location

Airport or City:

Trip Planner

Search our weather history database for the weather conditions in past years. The results will help you decide how hot, cold, wet, or windy it might be!

Date:

Astronomy

Oct. 01, 2013 Rise Set
Actual Time 5:35 AM EET 5:28 PM EET
Civil Twilight 5:11 AM EET 5:51 PM EET
Nautical Twilight 4:44 AM EET 6:19 PM EET
Astronomical Twilight 4:17 AM EET 6:46 PM EET
Moon 2:05 AM EET (10/1) 3:07 PM EET (10/1)
Length of Visible Light 12h 40m
Length of Day
11h 53m
Waning Crescent, 14% of the Moon is Illuminated
Oct 1
Waning Crescent
Oct 5
New
Oct 12
First Quarter
Oct 19
Full
Oct 27
Last Quarter

Hourly Weather History & Observations

Time (EET) Temp. Heat Index Dew Point Humidity Pressure Visibility Wind Dir Wind Speed Gust Speed Precip Events Conditions
12:00 AM 78.8 °F - 51.8 °F 39% 29.77 in - North 4.6 mph - N/A   Clear
1:00 AM 77.0 °F - 55.4 °F 47% 29.77 in - North 4.6 mph - N/A   Clear
2:00 AM 75.2 °F - 59.0 °F 57% 29.74 in - North 4.6 mph - N/A   Clear
3:00 AM 75.2 °F - 60.8 °F 61% 29.74 in - North 6.9 mph - N/A   Clear
4:00 AM 77.0 °F - 60.8 °F 57% 29.74 in - North 9.2 mph - N/A   Clear
5:00 AM 75.2 °F - 60.8 °F 61% 29.74 in - North 4.6 mph - N/A   Clear
6:00 AM 75.2 °F - 59.0 °F 57% 29.77 in - NNW 5.8 mph - N/A   Clear
7:00 AM 80.6 °F 82.3 °F 64.4 °F 58% 29.77 in - North 6.9 mph - N/A   Clear
8:00 AM 82.4 °F 83.9 °F 64.4 °F 54% 29.77 in - North 9.2 mph - N/A   Clear
9:00 AM 86.0 °F 86.6 °F 62.6 °F 45% 29.80 in - NNE 9.2 mph - N/A   Clear
10:00 AM 87.8 °F 88.5 °F 62.6 °F 43% 29.80 in - NE 8.1 mph - N/A   Clear
11:00 AM 93.2 °F 92.6 °F 59.0 °F 32% 29.77 in - NE 6.9 mph - N/A   Clear
12:00 PM 96.8 °F 95.1 °F 55.4 °F 25% 29.74 in - East 5.8 mph - N/A   Clear
1:00 PM 96.8 °F 95.1 °F 55.4 °F 25% 29.74 in - SSE 3.5 mph - N/A   Clear
2:00 PM 95.0 °F 93.0 °F 55.4 °F 26% 29.71 in - SSE 6.9 mph - N/A   Clear
3:00 PM 89.6 °F 89.5 °F 60.8 °F 38% 29.71 in - SSE 8.1 mph - N/A   Clear
4:00 PM 87.8 °F 88.5 °F 62.6 °F 43% 29.71 in - SE 11.5 mph - N/A   Clear
5:00 PM 87.8 °F 88.5 °F 62.6 °F 43% 29.71 in - SE 5.8 mph - N/A   Clear
6:00 PM 82.4 °F 83.9 °F 64.4 °F 54% 29.71 in - SSE 3.5 mph - N/A   Clear
7:00 PM 80.6 °F 82.7 °F 66.2 °F 61% 29.71 in - SSE 5.8 mph - N/A   Clear
8:00 PM 80.6 °F 82.3 °F 64.4 °F 58% 29.74 in - Variable 2.3 mph - N/A   Clear
9:00 PM 77.0 °F - 64.4 °F 65% 29.74 in - North 4.6 mph - N/A   Clear
10:00 PM 77.0 °F - 64.4 °F 65% 29.74 in - North 4.6 mph - N/A   Clear
11:00 PM 77.0 °F - 62.6 °F 61% 29.74 in - North 6.9 mph - N/A   Clear